DELTA 1 DEB, 10647

Orbit data source: Space-Track

DELTA 1 DEB, 10647 is space debris in SSO originally from a launch on Thu, 29 Jul 1976 UTC launched from the Air Force Western Test Range (AFWTR). Debris objects in space refer to the collection of defunct objects orbiting the Earth. Examples of debris include non-operational satellites, rocket bodies, and fragments generated from explosions, collisions, or faulty payload assembly.

Loading next visibility...
Identifier
10647, 1976-077H
Orbit
SSO
Country
Flag of USUS
Related business
Manufacturer
Unknown
Mission
Spacecraft
Bus & Motor
Unknown
Mass
Unknown
Launch date (UTC)
1976-07-29 (50 years ago)
Launch vehicle
Unknown
Launch site
Air Force Western Test Range (AFWTR)
Object type
Payload
Rocket body
Debris
Shape & HBR
Unknown shape, 0.1 m
Radar Cross Section
Medium (>0.1 m² and <1 m²)

Expand to show TLE details & history
Last TLE update: 5 hours ago

TLE from 5 hours ago
0 DELTA 1 DEB
1 10647U 76077H   26119.19033192 -.00000050  00000-0 -53064-4 0  9991
2 10647 102.7544 217.4412 0166287 209.7404 181.7714 12.11314172200295
Epoch: 2026-04-29T04:34Z
TLE epoch observation values (Epoch: 2026-04-29T04:34:04.677Z)
Latitude
30.64303°
Longitude
-75.90288°
Altitude
1,767.232 km
Speed
6.941 km/s
True Right ascension
13h 59m 05s
True Declination
30° 30' 40"
Sunlit
Object was in full shadow at epoch
Visualization orbit readout
Latitude
Unknown
Longitude
Unknown
Altitude
Unknown
Speed
Unknown
Apparent Right ascension
Unknown
Apparent Declination
Unknown
Sunlit
N/A
Visualization observer readout
Local Sidereal Time
16:44:33
Azimuth
Unknown
Elevation
Unknown
Doppler factor
Unknown
Orbital elements
Apogee altitude
1,761.392 km
Perigee altitude
1,495.12 km
Semi-major axis
8,006.393 km
Eccentricity
0.01663
Inclination
102.7544°
RAAN
217.4412°
Arg. of periapsis
209.7404°
True anomaly
181.7137°
Mean anomaly
181.7714°
Eccentric anomaly
181.74243°
Mean motion
3.02962 °/min
Orbital period
118.83 mins
BSTAR
-0.000053064
Loading maneuver chart data...
Computing Atmospheric mass density...
Loading historical data...
Loading historical data...
Loading historical data...
Loading historical data...
Loading historical data...
Loading historical data...
Loading historical data...

Documentation

Showing up to 5 results
|